Location: Hartford
(41.7640°N, 72.6860°W)
Time: 19:46:20
(UTC-05:00)

ISS - Visible Passes

Search period start: 16 January 2017 00:00
Search period end: 26 January 2017 00:00
Orbit: 400 x 410 km, 51.6° (Epoch: 17 January)

Date Brightness Start Highest point End Pass type
(mag) Time Alt. Az. Time Alt. Az. Time Alt. Az.
16 Jan -2.4 05:23:15 38° NNE 05:23:22 39° NNE 05:26:28 10° E visible
17 Jan -0.1 04:33:19 13° ENE 04:33:19 13° ENE 04:33:54 10° E visible
17 Jan -3.0 06:05:59 23° WNW 06:07:43 51° SW 06:10:53 10° SE visible
18 Jan -2.8 05:16:07 59° ESE 05:16:07 59° ESE 05:18:50 10° ESE visible
19 Jan 0.2 04:26:19 11° ESE 04:26:19 11° ESE 04:26:31 10° ESE visible
19 Jan -1.8 05:59:00 20° WSW 05:59:38 21° SW 06:02:10 10° S visible
20 Jan -1.3 05:09:16 22° SSE 05:09:16 22° SSE 05:10:39 10° SSE visible
